User: anonymous   Login
Location: Bothwell
(42.3833°S, 147.0000°E)
Time: 21:35:00
(UTC+11:00)
Language:

MOZHAYETS 4 - Orbit

View from above orbital plane
View from above orbital plane
View from above satellite
View from above satellite

Ground track
Ground track

The orbit data is extracted from the following two-line orbital elements,

1 27939U 03042A   23029.89866072  .00001632  00000-0  29449-3 0  9994
2 27939  98.2181 176.0541 0012279 208.9829 151.0692 14.67813199 34251
Epoch (UTC): 29 January 2023 21:34:04
Eccentricity: 0.0012279
inclination: 98.2181°
perigee height: 659 km
apogee height: 677 km
right ascension of ascending node: 176.0541°
argument of perigee: 208.9829°
revolutions per day: 14.67813199
mean anomaly at epoch: 151.0692°
orbit number at epoch: 3425

The dashed part of the orbit path shows where the satellite is in the earth's shadow,  

DLR